Weather History for SBGL - September, 2013

Change the Weather History Date:

Thursday, September 26, 2013

  Actual Average Record
Temperature  
Mean Temperature 68 °F -  
Max Temperature 74 °F 80 °F 91 °F (2014)
Min Temperature 62 °F 67 °F 57 °F (1999)
Cooling Degree Days 3    
Growing Degree Days 18 (Base 50)    
Moisture  
Dew Point 53 °F    
Average Humidity 60    
Maximum Humidity 88    
Minimum Humidity 30    
Precipitation  
Precipitation 0.00 in - - ()
Sea Level Pressure  
Sea Level Pressure 30.12 in    
Wind  
Wind Speed 9 mph ()    
Max Wind Speed 21 mph    
Max Gust Speed -    
Visibility 7.1 miles    
Events Rain    
Averages and records for this station are not official NWS values.
T = Trace of Precipitation, MM = Missing Value Source: Averaged Metar Reports

Daily Weather History Graph

Daily Weather History Graph

Search for Another Location

Airport or City:

Trip Planner

Search our weather history database for the weather conditions in past years. The results will help you decide how hot, cold, wet, or windy it might be!

Date:

Astronomy

Sep. 26, 2013 Rise Set
Actual Time 5:38 AM BRT 5:50 PM BRT
Civil Twilight 5:15 AM BRT 6:12 PM BRT
Nautical Twilight 4:49 AM BRT 6:39 PM BRT
Astronomical Twilight 4:23 AM BRT 7:05 PM BRT
Moon No Moon Rise 10:44 AM BRT (9/26)
Length of Visible Light 12h 56m
Length of Day
12h 11m
Waning Gibbous, 55% of the Moon is Illuminated
Sep 26
Waning Gibbous
Sep 27
Last Quarter
Oct 4
New
Oct 11
First Quarter
Oct 18
Full

Hourly Weather History & Observations

Time (BRT) Temp. Dew Point Humidity Pressure Visibility Wind Dir Wind Speed Gust Speed Precip Events Conditions
12:00 AM 65 °F 58 °F 73% 30.13 in 5 mi South 8.1 mph - - Rain Light Rain
12:00 AM 64.4 °F 59.0 °F 83% 30.12 in 5.0 mi South 8.1 mph - N/A Rain Light Rain
1:00 AM 62.6 °F 59.0 °F 88% 30.09 in 6.2 mi NW 2.3 mph - N/A   Mostly Cloudy
2:00 AM 62.6 °F 57.2 °F 82% 30.06 in 6.2 mi NW 6.9 mph - N/A   Mostly Cloudy
3:00 AM 63 °F 57 °F 76%  in 12 mi NNW 5.8 mph - -  
3:00 AM 62.6 °F 57.2 °F 82% 30.06 in 6.2 mi NNW 5.8 mph - N/A   Mostly Cloudy
4:00 AM 62.6 °F 57.2 °F 82% 30.06 in 6.2 mi NW 5.8 mph - N/A   Partly Cloudy
5:00 AM 62.6 °F 57.2 °F 82% 30.09 in 6.2 mi NW 6.9 mph - N/A   Scattered Clouds
6:00 AM 63 °F 56 °F 73% 30.12 in 12 mi WNW 6.9 mph - -   Mostly Cloudy
6:00 AM 62.6 °F 57.2 °F 82% 30.09 in 6.2 mi WNW 6.9 mph - N/A   Scattered Clouds
7:00 AM 62.6 °F 55.4 °F 77% 30.12 in 6.2 mi NW 10.4 mph - N/A   Mostly Cloudy
8:00 AM 69.8 °F 57.2 °F 64% 30.12 in 6.2 mi West 13.8 mph - N/A   Mostly Cloudy
9:00 AM 71 °F 54 °F 44% 30.16 in 7 mi WSW 13.8 mph - -   Haze
9:00 AM 71.6 °F 53.6 °F 53% 30.15 in 6.2 mi WSW 13.8 mph - N/A   Scattered Clouds
10:00 AM 71.6 °F 51.8 °F 50% 30.15 in 6.2 mi SSW 13.8 mph - N/A   Mostly Cloudy
11:00 AM 73.4 °F 50.0 °F 44% 30.15 in 6.2 mi SSW 11.5 mph - N/A   Mostly Cloudy
12:00 PM 73.4 °F 51.8 °F 47% 30.12 in 6.2 mi SW 15.0 mph - N/A   Mostly Cloudy
1:00 PM 71.6 °F 48.2 °F 43% 30.12 in 6.2 mi South 17.3 mph - N/A   Mostly Cloudy
2:00 PM 75.2 °F 50.0 °F 41% 30.09 in 6.2 mi South 20.7 mph - N/A   Scattered Clouds
3:00 PM 73 °F 48 °F 30% 30.10 in 12 mi South 15.0 mph - -   Partly Cloudy
3:00 PM 73.4 °F 48.2 °F 41% 30.09 in 6.2 mi South 15.0 mph - N/A   Scattered Clouds
4:00 PM 71.6 °F 50.0 °F 46% 30.09 in 6.2 mi South 16.1 mph - N/A   Scattered Clouds
5:00 PM 69.8 °F 51.8 °F 53% 30.12 in 6.2 mi SSW 15.0 mph - N/A   Scattered Clouds
6:00 PM 69 °F 51 °F 42% 30.15 in 12 mi SSW 13.8 mph - -   Scattered Clouds
6:00 PM 69.8 °F 51.8 °F 53% 30.12 in 6.2 mi SSW 13.8 mph - N/A   Mostly Cloudy
7:00 PM 68.0 °F 51.8 °F 56% 30.15 in - SW 10.4 mph - N/A   Mostly Cloudy
8:00 PM 68.0 °F 51.8 °F 56% 30.15 in 6.2 mi SW 8.1 mph - N/A   Mostly Cloudy
9:00 PM 68 °F 51 °F 43% 30.19 in 12 mi SW 8.1 mph - -   Scattered Clouds
9:00 PM 68.0 °F 50.0 °F 52% 30.18 in 6.2 mi SW 8.1 mph - N/A   Mostly Cloudy
10:00 PM 68.0 °F 50.0 °F 52% 30.18 in 6.2 mi SW 5.8 mph - N/A   Mostly Cloudy
11:00 PM 68.0 °F 51.8 °F 56% 30.18 in 6.2 mi West 6.9 mph - N/A   Mostly Cloudy